Time,TemperatureF,DewpointF,PressureIn,WindDirection,WindDirectionDegrees,WindSpeedMPH,WindSpeedGustMPH,Humidity,HourlyPrecipIn,Conditions,Clouds,dailyrainin,SoftwareType,DateUTC
2014-11-28 00:00:00,6.1,2.8,30.20,SSE,155,0.0,12.0,86,0.00,,,0.00,Wunderground v.1.15,2014-11-28 06:00:00,
2014-11-28 00:05:00,6.2,2.9,30.20,ESE,104,0.0,12.0,86,0.00,,,0.00,Wunderground v.1.15,2014-11-28 06:05:00,
2014-11-28 00:10:00,6.3,3.0,30.20,SE,143,0.0,12.0,86,0.00,,,0.00,Wunderground v.1.15,2014-11-28 06:10:00,
2014-11-28 00:15:00,6.3,3.3,30.20,East,83,0.0,12.0,87,0.00,,,0.00,Wunderground v.1.15,2014-11-28 06:15:00,
2014-11-28 00:20:00,6.4,3.4,30.19,NE,53,0.0,12.0,87,0.00,,,0.00,Wunderground v.1.15,2014-11-28 06:20:00,
2014-11-28 00:26:00,6.6,3.6,30.19,ESE,110,1.0,12.0,87,0.00,,,0.00,Wunderground v.1.15,2014-11-28 06:26:00,
2014-11-28 00:31:00,6.6,3.6,30.19,East,82,0.0,12.0,87,0.00,,,0.00,Wunderground v.1.15,2014-11-28 06:31:00,
2014-11-28 00:36:00,6.7,3.7,30.18,ESE,103,0.0,12.0,87,0.00,,,0.00,Wunderground v.1.15,2014-11-28 06:36:00,
2014-11-28 00:41:00,6.7,3.9,30.17,SSE,153,0.0,12.0,88,0.00,,,0.00,Wunderground v.1.15,2014-11-28 06:41:00,
2014-11-28 00:46:00,6.9,4.1,30.17,ENE,65,0.0,12.0,88,0.00,,,0.00,Wunderground v.1.15,2014-11-28 06:46:00,
2014-11-28 00:51:00,7.0,4.2,30.18,East,101,0.0,12.0,88,0.00,,,0.00,Wunderground v.1.15,2014-11-28 06:51:00,
2014-11-28 00:56:00,7.1,4.3,30.17,ENE,64,0.0,12.0,88,0.00,,,0.00,Wunderground v.1.15,2014-11-28 06:56:00,
2014-11-28 01:01:00,7.2,4.4,30.16,NE,52,1.0,12.0,88,0.00,,,0.00,Wunderground v.1.15,2014-11-28 07:01:00,
2014-11-28 01:06:00,7.3,4.5,30.16,East,93,0.0,12.0,88,0.00,,,0.00,Wunderground v.1.15,2014-11-28 07:06:00,
2014-11-28 01:11:00,7.4,4.6,30.16,SE,134,1.0,12.0,88,0.00,,,0.00,Wunderground v.1.15,2014-11-28 07:11:00,
2014-11-28 01:17:00,7.4,4.6,30.16,WNW,282,1.0,12.0,88,0.00,,,0.00,Wunderground v.1.15,2014-11-28 07:17:00,
2014-11-28 01:22:00,7.4,4.8,30.15,East,86,1.0,12.0,89,0.00,,,0.00,Wunderground v.1.15,2014-11-28 07:22:00,
2014-11-28 01:27:00,7.5,4.9,30.14,East,89,0.0,12.0,89,0.00,,,0.00,Wunderground v.1.15,2014-11-28 07:27:00,
2014-11-28 01:32:00,7.5,4.9,30.13,ENE,64,1.0,12.0,89,0.00,,,0.00,Wunderground v.1.15,2014-11-28 07:32:00,
2014-11-28 01:37:00,7.6,5.0,30.13,ENE,58,1.0,12.0,89,0.00,,,0.00,Wunderground v.1.15,2014-11-28 07:37:00,
2014-11-28 01:43:00,7.6,5.0,30.13,NNE,21,2.0,12.0,89,0.00,,,0.00,Wunderground v.1.15,2014-11-28 07:43:00,
2014-11-28 01:48:00,7.6,5.0,30.12,NNE,32,1.0,12.0,89,0.00,,,0.00,Wunderground v.1.15,2014-11-28 07:48:00,
2014-11-28 01:53:00,7.7,5.1,30.11,East,94,1.0,12.0,89,0.00,,,0.00,Wunderground v.1.15,2014-11-28 07:53:00,
2014-11-28 01:58:00,7.8,5.2,30.11,ENE,77,2.0,12.0,89,0.00,,,0.00,Wunderground v.1.15,2014-11-28 07:58:00,
2014-11-28 02:03:00,7.8,5.2,30.10,ENE,75,2.0,12.0,89,0.00,,,0.00,Wunderground v.1.15,2014-11-28 08:03:00,
2014-11-28 02:09:00,7.9,5.3,30.10,ENE,72,2.0,12.0,89,0.00,,,0.00,Wunderground v.1.15,2014-11-28 08:09:00,
2014-11-28 02:14:00,8.1,5.5,30.10,East,84,2.0,12.0,89,0.00,,,0.00,Wunderground v.1.15,2014-11-28 08:14:00,
2014-11-28 02:19:00,8.1,5.5,30.10,NNE,25,2.0,12.0,89,0.00,,,0.00,Wunderground v.1.15,2014-11-28 08:19:00,
2014-11-28 02:24:00,8.2,5.6,30.10,NE,39,2.0,12.0,89,0.00,,,0.00,Wunderground v.1.15,2014-11-28 08:24:00,
2014-11-28 02:29:00,8.3,5.7,30.10,East,79,2.0,12.0,89,0.00,,,0.00,Wunderground v.1.15,2014-11-28 08:29:00,
2014-11-28 02:35:00,8.4,5.8,30.10,ENE,60,1.0,12.0,89,0.00,,,0.00,Wunderground v.1.15,2014-11-28 08:35:00,
2014-11-28 02:40:00,8.5,5.9,30.09,ENE,78,1.0,12.0,89,0.00,,,0.00,Wunderground v.1.15,2014-11-28 08:40:00,
2014-11-28 02:45:00,8.6,6.0,30.09,NNW,346,1.0,12.0,89,0.00,,,0.00,Wunderground v.1.15,2014-11-28 08:45:00,
2014-11-28 02:50:00,8.7,6.1,30.08,ENE,77,1.0,12.0,89,0.00,,,0.00,Wunderground v.1.15,2014-11-28 08:50:00,
2014-11-28 02:55:00,8.8,6.2,30.08,NW,317,2.0,12.0,89,0.00,,,0.00,Wunderground v.1.15,2014-11-28 08:55:00,
2014-11-28 03:01:00,9.0,6.4,30.07,NNE,23,1.0,12.0,89,0.00,,,0.00,Wunderground v.1.15,2014-11-28 09:01:00,
2014-11-28 03:06:00,9.1,6.5,30.06,SE,139,1.0,12.0,89,0.00,,,0.00,Wunderground v.1.15,2014-11-28 09:06:00,
2014-11-28 03:11:00,9.2,6.6,30.06,ESE,108,1.0,12.0,89,0.00,,,0.00,Wunderground v.1.15,2014-11-28 09:11:00,
2014-11-28 03:16:00,9.4,6.8,30.06,NNE,22,1.0,12.0,89,0.00,,,0.00,Wunderground v.1.15,2014-11-28 09:16:00,
2014-11-28 03:21:00,9.5,6.9,30.05,NNE,33,1.0,12.0,89,0.00,,,0.00,Wunderground v.1.15,2014-11-28 09:21:00,
2014-11-28 03:27:00,9.6,7.0,30.04,ENE,64,1.0,12.0,89,0.00,,,0.00,Wunderground v.1.15,2014-11-28 09:27:00,
2014-11-28 03:32:00,9.7,7.1,30.04,North,360,1.0,12.0,89,0.00,,,0.00,Wunderground v.1.15,2014-11-28 09:32:00,
2014-11-28 03:37:00,9.8,7.2,30.04,ENE,63,1.0,12.0,89,0.00,,,0.00,Wunderground v.1.15,2014-11-28 09:37:00,
2014-11-28 03:42:00,10.0,7.4,30.04,SE,125,0.0,12.0,89,0.00,,,0.00,Wunderground v.1.15,2014-11-28 09:42:00,
2014-11-28 03:47:00,10.1,7.5,30.03,NNW,343,0.0,12.0,89,0.00,,,0.00,Wunderground v.1.15,2014-11-28 09:47:00,
2014-11-28 03:52:00,10.3,7.7,30.03,East,82,0.0,12.0,89,0.00,,,0.00,Wunderground v.1.15,2014-11-28 09:52:00,
2014-11-28 03:58:00,10.5,7.9,30.02,East,91,1.0,12.0,89,0.00,,,0.00,Wunderground v.1.15,2014-11-28 09:58:00,
2014-11-28 04:03:00,10.7,8.1,30.03,West,274,1.0,12.0,89,0.00,,,0.00,Wunderground v.1.15,2014-11-28 10:03:00,
2014-11-28 04:08:00,10.8,8.2,30.03,East,96,1.0,12.0,89,0.00,,,0.00,Wunderground v.1.15,2014-11-28 10:08:00,
2014-11-28 04:13:00,10.8,8.2,30.02,NW,314,1.0,12.0,89,0.00,,,0.00,Wunderground v.1.15,2014-11-28 10:13:00,
2014-11-28 04:18:00,10.8,8.2,30.02,WNW,302,0.0,12.0,89,0.00,,,0.00,Wunderground v.1.15,2014-11-28 10:18:00,
2014-11-28 04:24:00,10.8,7.9,30.01,NW,307,0.0,12.0,88,0.00,,,0.00,Wunderground v.1.15,2014-11-28 10:24:00,
2014-11-28 04:29:00,10.7,7.8,30.01,East,83,0.0,12.0,88,0.00,,,0.00,Wunderground v.1.15,2014-11-28 10:29:00,
2014-11-28 04:34:00,10.7,7.8,30.00,SE,129,0.0,12.0,88,0.00,,,0.00,Wunderground v.1.15,2014-11-28 10:34:00,
2014-11-28 04:39:00,10.6,7.7,30.00,NNW,340,0.0,12.0,88,0.00,,,0.00,Wunderground v.1.15,2014-11-28 10:39:00,
2014-11-28 04:44:00,10.5,7.6,30.00,NNE,33,0.0,12.0,88,0.00,,,0.00,Wunderground v.1.15,2014-11-28 10:44:00,
2014-11-28 04:49:00,10.4,7.6,30.00,ENE,59,0.0,12.0,88,0.00,,,0.00,Wunderground v.1.15,2014-11-28 10:49:00,
2014-11-28 04:55:00,10.4,7.6,29.99,SE,132,0.0,12.0,88,0.00,,,0.00,Wunderground v.1.15,2014-11-28 10:55:00,
2014-11-28 05:00:00,10.5,7.6,29.99,NE,46,0.0,12.0,88,0.00,,,0.00,Wunderground v.1.15,2014-11-28 11:00:00,
2014-11-28 05:05:00,10.6,7.7,29.99,NE,53,0.0,12.0,88,0.00,,,0.00,Wunderground v.1.15,2014-11-28 11:05:00,
2014-11-28 05:10:00,10.8,7.9,29.99,East,90,0.0,12.0,88,0.00,,,0.00,Wunderground v.1.15,2014-11-28 11:10:00,
2014-11-28 05:15:00,11.0,8.4,29.99,North,8,0.0,12.0,89,0.00,,,0.00,Wunderground v.1.15,2014-11-28 11:15:00,
2014-11-28 05:20:00,11.1,8.2,29.99,East,101,1.0,12.0,88,0.00,,,0.00,Wunderground v.1.15,2014-11-28 11:20:00,
2014-11-28 05:25:00,11.2,8.3,29.99,NNW,345,0.0,12.0,88,0.00,,,0.00,Wunderground v.1.15,2014-11-28 11:25:00,
2014-11-28 05:30:00,11.4,8.5,29.99,SSW,209,0.0,12.0,88,0.00,,,0.00,Wunderground v.1.15,2014-11-28 11:30:00,
2014-11-28 05:35:00,11.5,8.6,29.98,North,349,0.0,12.0,88,0.00,,,0.00,Wunderground v.1.15,2014-11-28 11:35:00,
2014-11-28 05:41:00,11.6,8.7,29.99,NE,50,0.0,12.0,88,0.00,,,0.00,Wunderground v.1.15,2014-11-28 11:41:00,
2014-11-28 05:46:00,11.8,8.9,29.99,NW,311,0.0,12.0,88,0.00,,,0.00,Wunderground v.1.15,2014-11-28 11:46:00,
2014-11-28 05:51:00,11.9,8.8,29.99,East,98,0.0,12.0,87,0.00,,,0.00,Wunderground v.1.15,2014-11-28 11:51:00,
2014-11-28 05:56:00,12.0,9.1,29.99,East,98,0.0,12.0,88,0.00,,,0.00,Wunderground v.1.15,2014-11-28 11:56:00,
2014-11-28 06:01:00,12.2,9.1,29.98,ENE,70,0.0,12.0,87,0.00,,,0.00,Wunderground v.1.15,2014-11-28 12:01:00,
2014-11-28 06:07:00,12.3,9.2,29.98,NW,326,0.0,12.0,87,0.00,,,0.00,Wunderground v.1.15,2014-11-28 12:07:00,
2014-11-28 06:12:00,12.4,9.3,29.98,East,97,0.0,12.0,87,0.00,,,0.00,Wunderground v.1.15,2014-11-28 12:12:00,
2014-11-28 06:17:00,12.5,9.4,29.98,NNW,329,0.0,12.0,87,0.00,,,0.00,Wunderground v.1.15,2014-11-28 12:17:00,
2014-11-28 06:22:00,12.6,9.5,29.97,NW,319,0.0,12.0,87,0.00,,,0.00,Wunderground v.1.15,2014-11-28 12:22:00,
2014-11-28 06:27:00,12.6,9.2,29.97,NNE,25,0.0,12.0,86,0.00,,,0.00,Wunderground v.1.15,2014-11-28 12:27:00,
2014-11-28 06:33:00,12.7,9.3,29.97,NW,320,0.0,12.0,86,0.00,,,0.00,Wunderground v.1.15,2014-11-28 12:33:00,
2014-11-28 06:38:00,12.7,9.3,29.97,North,9,0.0,12.0,86,0.00,,,0.00,Wunderground v.1.15,2014-11-28 12:38:00,
2014-11-28 06:43:00,12.6,9.2,29.96,East,89,0.0,12.0,86,0.00,,,0.00,Wunderground v.1.15,2014-11-28 12:43:00,
2014-11-28 06:48:00,12.5,9.1,29.96,NW,316,0.0,12.0,86,0.00,,,0.00,Wunderground v.1.15,2014-11-28 12:48:00,
2014-11-28 06:53:00,12.3,8.7,29.96,NW,316,0.0,12.0,85,0.00,,,0.00,Wunderground v.1.15,2014-11-28 12:53:00,
2014-11-28 06:59:00,12.1,8.7,29.97,ESE,120,0.0,12.0,86,0.00,,,0.00,Wunderground v.1.15,2014-11-28 12:59:00,
2014-11-28 07:04:00,12.0,8.6,29.96,NE,34,0.0,12.0,86,0.00,,,0.00,Wunderground v.1.15,2014-11-28 13:04:00,
2014-11-28 07:09:00,11.7,8.3,29.96,ENE,66,0.0,12.0,86,0.00,,,0.00,Wunderground v.1.15,2014-11-28 13:09:00,
2014-11-28 07:14:00,11.5,8.1,29.96,NNE,30,0.0,12.0,86,0.00,,,0.00,Wunderground v.1.15,2014-11-28 13:14:00,
2014-11-28 07:19:00,11.3,7.9,29.95,ENE,73,0.0,12.0,86,0.00,,,0.00,Wunderground v.1.15,2014-11-28 13:19:00,
2014-11-28 07:25:00,11.0,7.6,29.95,NE,34,0.0,12.0,86,0.00,,,0.00,Wunderground v.1.15,2014-11-28 13:25:00,
2014-11-28 07:30:00,11.0,7.9,29.95,East,79,0.0,12.0,87,0.00,,,0.00,Wunderground v.1.15,2014-11-28 13:30:00,
2014-11-28 07:35:00,10.9,7.8,29.94,East,79,0.0,12.0,87,0.00,,,0.00,Wunderground v.1.15,2014-11-28 13:35:00,
2014-11-28 07:40:00,10.8,7.7,29.94,ENE,78,0.0,12.0,87,0.00,,,0.00,Wunderground v.1.15,2014-11-28 13:40:00,
2014-11-28 07:45:00,10.9,7.8,29.94,East,99,0.0,12.0,87,0.00,,,0.00,Wunderground v.1.15,2014-11-28 13:45:00,
2014-11-28 07:51:00,10.8,7.7,29.94,ENE,78,0.0,12.0,87,0.00,,,0.00,Wunderground v.1.15,2014-11-28 13:51:00,
2014-11-28 07:56:00,10.8,7.7,29.93,East,98,0.0,12.0,87,0.00,,,0.00,Wunderground v.1.15,2014-11-28 13:56:00,
2014-11-28 08:01:00,11.0,7.9,29.93,NE,53,0.0,12.0,87,0.00,,,0.00,Wunderground v.1.15,2014-11-28 14:01:00,
2014-11-28 08:06:00,11.3,8.2,29.94,NNE,29,0.0,12.0,87,0.00,,,0.00,Wunderground v.1.15,2014-11-28 14:06:00,
2014-11-28 08:11:00,11.6,8.5,29.93,NE,44,0.0,12.0,87,0.00,,,0.00,Wunderground v.1.15,2014-11-28 14:11:00,
2014-11-28 08:16:00,11.9,8.8,29.94,NE,35,0.0,12.0,87,0.00,,,0.00,Wunderground v.1.15,2014-11-28 14:16:00,
2014-11-28 08:21:00,12.3,9.2,29.94,NNE,18,0.0,12.0,87,0.00,,,0.00,Wunderground v.1.15,2014-11-28 14:21:00,
2014-11-28 08:26:00,12.5,9.1,29.93,East,98,0.0,12.0,86,0.00,,,0.00,Wunderground v.1.15,2014-11-28 14:26:00,
2014-11-28 08:31:00,12.6,9.2,29.93,East,87,0.0,12.0,86,0.00,,,0.00,Wunderground v.1.15,2014-11-28 14:31:00,
2014-11-28 08:36:00,12.8,9.4,29.92,East,90,0.0,12.0,86,0.00,,,0.00,Wunderground v.1.15,2014-11-28 14:36:00,
2014-11-28 08:42:00,13.0,9.6,29.92,NNE,33,0.0,12.0,86,0.00,,,0.00,Wunderground v.1.15,2014-11-28 14:42:00,
2014-11-28 08:47:00,13.5,9.8,29.93,North,356,0.0,12.0,85,0.00,,,0.00,Wunderground v.1.15,2014-11-28 14:47:00,
2014-11-28 08:52:00,14.0,10.3,29.92,South,169,0.0,12.0,85,0.00,,,0.00,Wunderground v.1.15,2014-11-28 14:52:00,
2014-11-28 08:57:00,14.4,10.4,29.92,ENE,68,0.0,12.0,84,0.00,,,0.00,Wunderground v.1.15,2014-11-28 14:57:00,
2014-11-28 09:02:00,15.0,11.0,29.92,SE,138,0.0,12.0,84,0.00,,,0.00,Wunderground v.1.15,2014-11-28 15:02:00,
2014-11-28 09:07:00,15.4,10.9,29.92,ENE,77,1.0,12.0,82,0.00,,,0.00,Wunderground v.1.15,2014-11-28 15:07:00,
2014-11-28 09:13:00,15.7,11.2,29.91,WSW,255,1.0,12.0,82,0.00,,,0.00,Wunderground v.1.15,2014-11-28 15:13:00,
2014-11-28 09:18:00,15.9,11.1,29.92,NE,53,0.0,12.0,81,0.00,,,0.00,Wunderground v.1.15,2014-11-28 15:18:00,
2014-11-28 09:23:00,16.0,11.2,29.92,North,3,0.0,12.0,81,0.00,,,0.00,Wunderground v.1.15,2014-11-28 15:23:00,
2014-11-28 09:28:00,16.2,11.4,29.92,West,273,0.0,12.0,81,0.00,,,0.00,Wunderground v.1.15,2014-11-28 15:28:00,
2014-11-28 09:33:00,16.6,11.5,29.91,North,4,0.0,12.0,80,0.00,,,0.00,Wunderground v.1.15,2014-11-28 15:33:00,
2014-11-28 09:39:00,17.0,11.9,29.91,South,171,1.0,1.0,80,0.00,,,0.00,Wunderground v.1.15,2014-11-28 15:39:00,
2014-11-28 09:44:00,17.1,11.7,29.91,SSE,148,0.0,12.0,79,0.00,,,0.00,Wunderground v.1.15,2014-11-28 15:44:00,
2014-11-28 09:49:00,17.4,12.0,29.91,NNE,20,0.0,12.0,79,0.00,,,0.00,Wunderground v.1.15,2014-11-28 15:49:00,
2014-11-28 09:54:00,17.5,12.1,29.93,NE,56,1.0,12.0,79,0.00,,,0.00,Wunderground v.1.15,2014-11-28 15:54:00,
2014-11-28 09:59:00,17.5,11.8,29.93,NNE,29,1.0,12.0,78,0.00,,,0.00,Wunderground v.1.15,2014-11-28 15:59:00,
2014-11-28 10:05:00,17.6,11.9,29.93,SE,146,1.0,12.0,78,0.00,,,0.00,Wunderground v.1.15,2014-11-28 16:05:00,
2014-11-28 10:10:00,18.1,12.7,29.92,NNE,29,0.0,2.0,79,0.00,,,0.00,Wunderground v.1.15,2014-11-28 16:10:00,
2014-11-28 10:15:00,18.3,12.6,29.91,ESE,119,1.0,12.0,78,0.00,,,0.00,Wunderground v.1.15,2014-11-28 16:15:00,
2014-11-28 10:20:00,18.6,12.6,29.90,ESE,120,1.0,12.0,77,0.00,,,0.00,Wunderground v.1.15,2014-11-28 16:20:00,
2014-11-28 10:25:00,18.8,12.8,29.93,East,96,1.0,12.0,77,0.00,,,0.00,Wunderground v.1.15,2014-11-28 16:25:00,
2014-11-28 10:31:00,19.1,13.1,29.92,ENE,58,1.0,12.0,77,0.00,,,0.00,Wunderground v.1.15,2014-11-28 16:31:00,
2014-11-28 10:36:00,19.2,13.2,29.91,SE,142,1.0,12.0,77,0.00,,,0.00,Wunderground v.1.15,2014-11-28 16:36:00,
2014-11-28 10:41:00,19.3,13.3,29.90,ESE,122,1.0,12.0,77,0.00,,,0.00,Wunderground v.1.15,2014-11-28 16:41:00,
2014-11-28 10:46:00,19.6,13.6,29.92,ESE,108,1.0,12.0,77,0.00,,,0.00,Wunderground v.1.15,2014-11-28 16:46:00,
2014-11-28 10:51:00,20.2,14.1,29.92,SW,232,1.0,12.0,77,0.00,,,0.00,Wunderground v.1.15,2014-11-28 16:51:00,
2014-11-28 10:57:00,20.8,14.4,29.91,NNE,27,1.0,12.0,76,0.00,,,0.00,Wunderground v.1.15,2014-11-28 16:57:00,
2014-11-28 11:02:00,20.7,14.3,29.90,NE,50,1.0,12.0,76,0.00,,,0.00,Wunderground v.1.15,2014-11-28 17:02:00,
2014-11-28 11:07:00,20.7,14.3,29.90,SW,232,1.0,12.0,76,0.00,,,0.00,Wunderground v.1.15,2014-11-28 17:07:00,
2014-11-28 11:12:00,20.8,14.4,29.90,East,89,1.0,12.0,76,0.00,,,0.00,Wunderground v.1.15,2014-11-28 17:12:00,
2014-11-28 11:17:00,20.8,14.4,29.90,ENE,68,1.0,12.0,76,0.00,,,0.00,Wunderground v.1.15,2014-11-28 17:17:00,
2014-11-28 11:23:00,20.8,14.4,29.87,East,86,1.0,12.0,76,0.00,,,0.00,Wunderground v.1.15,2014-11-28 17:23:00,
2014-11-28 11:28:00,20.9,14.5,29.87,SW,215,1.0,12.0,76,0.00,,,0.00,Wunderground v.1.15,2014-11-28 17:28:00,
2014-11-28 11:33:00,21.1,14.7,29.87,NE,56,1.0,12.0,76,0.00,,,0.00,Wunderground v.1.15,2014-11-28 17:33:00,
2014-11-28 11:38:00,20.9,14.5,29.87,NNE,19,1.0,12.0,76,0.00,,,0.00,Wunderground v.1.15,2014-11-28 17:38:00,
2014-11-28 11:43:00,21.3,15.2,29.86,East,98,1.0,12.0,77,0.00,,,0.00,Wunderground v.1.15,2014-11-28 17:43:00,
2014-11-28 11:48:00,21.7,15.6,29.86,ESE,108,0.0,12.0,77,0.00,,,0.00,Wunderground v.1.15,2014-11-28 17:48:00,
2014-11-28 11:53:00,22.1,15.4,29.87,NW,322,0.0,12.0,75,0.00,,,0.00,Wunderground v.1.15,2014-11-28 17:53:00,
2014-11-28 11:58:00,22.1,15.7,29.87,SSW,196,1.0,12.0,76,0.00,,,0.00,Wunderground v.1.15,2014-11-28 17:58:00,
2014-11-28 12:03:00,22.5,16.1,29.85,East,79,1.0,12.0,76,0.00,,,0.00,Wunderground v.1.15,2014-11-28 18:03:00,
2014-11-28 12:08:00,22.4,15.7,29.84,ESE,113,1.0,12.0,75,0.00,,,0.00,Wunderground v.1.15,2014-11-28 18:08:00,
2014-11-28 12:13:00,22.1,15.4,29.83,ENE,75,1.0,12.0,75,0.00,,,0.00,Wunderground v.1.15,2014-11-28 18:13:00,
2014-11-28 12:19:00,21.9,15.5,29.82,East,91,1.0,12.0,76,0.00,,,0.00,Wunderground v.1.15,2014-11-28 18:19:00,
2014-11-28 12:24:00,21.5,15.1,29.82,ESE,115,2.0,12.0,76,0.00,,,0.00,Wunderground v.1.15,2014-11-28 18:24:00,
2014-11-28 12:29:00,21.3,15.2,29.83,ENE,66,2.0,2.0,77,0.00,,,0.00,Wunderground v.1.15,2014-11-28 18:29:00,
2014-11-28 12:34:00,21.3,15.5,29.82,ESE,110,2.0,12.0,78,0.00,,,0.00,Wunderground v.1.15,2014-11-28 18:34:00,
2014-11-28 12:39:00,21.3,15.5,29.81,ENE,70,2.0,2.0,78,0.00,,,0.00,Wunderground v.1.15,2014-11-28 18:39:00,
2014-11-28 12:45:00,21.4,15.9,29.81,WSW,255,2.0,12.0,79,0.00,,,0.00,Wunderground v.1.15,2014-11-28 18:45:00,
2014-11-28 12:50:00,21.6,16.1,29.81,East,88,1.0,12.0,79,0.00,,,0.00,Wunderground v.1.15,2014-11-28 18:50:00,
2014-11-28 12:55:00,22.0,16.5,29.81,SSW,203,1.0,12.0,79,0.00,,,0.00,Wunderground v.1.15,2014-11-28 18:55:00,
2014-11-28 13:00:00,22.1,16.3,29.81,ENE,77,1.0,12.0,78,0.00,,,0.00,Wunderground v.1.15,2014-11-28 19:00:00,
2014-11-28 13:05:00,22.1,16.6,29.80,East,98,1.0,12.0,79,0.00,,,0.00,Wunderground v.1.15,2014-11-28 19:05:00,
2014-11-28 13:11:00,22.2,16.7,29.79,NE,39,1.0,12.0,79,0.00,,,0.00,Wunderground v.1.15,2014-11-28 19:11:00,
2014-11-28 13:16:00,22.1,16.6,29.79,East,90,2.0,12.0,79,0.00,,,0.00,Wunderground v.1.15,2014-11-28 19:16:00,
2014-11-28 13:21:00,22.0,16.5,29.79,NE,36,2.0,12.0,79,0.00,,,0.00,Wunderground v.1.15,2014-11-28 19:21:00,
2014-11-28 13:26:00,22.0,16.5,29.82,ENE,66,1.0,12.0,79,0.00,,,0.00,Wunderground v.1.15,2014-11-28 19:26:00,
2014-11-28 13:31:00,22.4,17.2,29.80,SSE,165,1.0,12.0,80,0.00,,,0.00,Wunderground v.1.15,2014-11-28 19:31:00,
2014-11-28 13:37:00,22.6,17.1,29.80,NNE,19,1.0,12.0,79,0.00,,,0.00,Wunderground v.1.15,2014-11-28 19:37:00,
2014-11-28 13:42:00,22.6,17.4,29.79,NW,322,1.0,12.0,80,0.00,,,0.00,Wunderground v.1.15,2014-11-28 19:42:00,
2014-11-28 13:47:00,22.7,17.5,29.80,NNE,16,1.0,12.0,80,0.00,,,0.00,Wunderground v.1.15,2014-11-28 19:47:00,
2014-11-28 13:52:00,22.7,17.5,29.81,North,7,1.0,12.0,80,0.00,,,0.00,Wunderground v.1.15,2014-11-28 19:52:00,
2014-11-28 13:57:00,22.7,17.7,29.81,ESE,103,1.0,12.0,81,0.00,,,0.00,Wunderground v.1.15,2014-11-28 19:57:00,
2014-11-28 14:03:00,23.1,18.1,29.81,North,353,0.0,12.0,81,0.00,,,0.00,Wunderground v.1.15,2014-11-28 20:03:00,
2014-11-28 14:08:00,23.2,17.9,29.80,ENE,77,1.0,12.0,80,0.00,,,0.00,Wunderground v.1.15,2014-11-28 20:08:00,
2014-11-28 14:13:00,23.0,17.7,29.79,ESE,107,1.0,12.0,80,0.00,,,0.00,Wunderground v.1.15,2014-11-28 20:13:00,
2014-11-28 14:18:00,23.0,18.0,29.79,North,354,1.0,12.0,81,0.00,,,0.00,Wunderground v.1.15,2014-11-28 20:18:00,
2014-11-28 14:23:00,23.0,18.0,29.78,ESE,115,1.0,12.0,81,0.00,,,0.00,Wunderground v.1.15,2014-11-28 20:23:00,
2014-11-28 14:29:00,23.1,18.4,29.78,East,89,1.0,12.0,82,0.00,,,0.00,Wunderground v.1.15,2014-11-28 20:29:00,
2014-11-28 14:34:00,23.0,18.0,29.78,NE,35,1.0,12.0,81,0.00,,,0.00,Wunderground v.1.15,2014-11-28 20:34:00,
2014-11-28 14:39:00,23.0,18.3,29.78,North,5,1.0,12.0,82,0.00,,,0.00,Wunderground v.1.15,2014-11-28 20:39:00,
2014-11-28 14:44:00,23.1,18.4,29.78,NNW,342,1.0,12.0,82,0.00,,,0.00,Wunderground v.1.15,2014-11-28 20:44:00,
2014-11-28 14:49:00,23.2,18.5,29.77,ESE,102,1.0,12.0,82,0.00,,,0.00,Wunderground v.1.15,2014-11-28 20:49:00,
2014-11-28 14:55:00,23.3,18.6,29.77,NNE,32,1.0,12.0,82,0.00,,,0.00,Wunderground v.1.15,2014-11-28 20:55:00,
2014-11-28 15:00:00,23.3,18.6,29.76,NNW,328,1.0,1.0,82,0.00,,,0.00,Wunderground v.1.15,2014-11-28 21:00:00,
2014-11-28 15:05:00,23.2,18.5,29.77,NW,311,1.0,12.0,82,0.00,,,0.00,Wunderground v.1.15,2014-11-28 21:05:00,
2014-11-28 15:10:00,23.1,18.7,29.77,East,87,1.0,1.0,83,0.00,,,0.00,Wunderground v.1.15,2014-11-28 21:10:00,
2014-11-28 15:15:00,23.1,18.7,29.77,East,96,1.0,12.0,83,0.00,,,0.00,Wunderground v.1.15,2014-11-28 21:15:00,
2014-11-28 15:20:00,23.1,18.7,29.77,SSE,148,0.0,12.0,83,0.00,,,0.00,Wunderground v.1.15,2014-11-28 21:20:00,
2014-11-28 15:25:00,23.1,18.7,29.77,East,95,0.0,12.0,83,0.00,,,0.00,Wunderground v.1.15,2014-11-28 21:25:00,
2014-11-28 15:30:00,23.1,18.7,29.77,NNE,30,0.0,12.0,83,0.00,,,0.00,Wunderground v.1.15,2014-11-28 21:30:00,
2014-11-28 15:35:00,23.0,18.9,29.77,NNE,21,1.0,12.0,84,0.00,,,0.00,Wunderground v.1.15,2014-11-28 21:35:00,
2014-11-28 15:40:00,23.0,18.9,29.77,East,83,1.0,12.0,84,0.00,,,0.00,Wunderground v.1.15,2014-11-28 21:40:00,